User: anonymous   Login
Location: Arezzo
(43.4170°N, 11.8830°E)
Time: 20:33:57
(UTC+02:00)
Language:

STARLINK-2717 - Orbit

View from above orbital plane
View from above orbital plane
View from above satellite
View from above satellite

Ground track
Ground track

The orbit data is extracted from the following two-line orbital elements,

1 48659C 21044X   21264.42067423  .00006964  00000-0  46670-3 0  2642
2 48659  53.0536 240.1734 0001302  49.6333 164.1793 15.06381918    15
Epoch (UTC): 21 September 2021 10:05:46
Eccentricity: 0.0001302
inclination: 53.0536°
perigee height: 546 km
apogee height: 548 km
right ascension of ascending node: 240.1734°
argument of perigee: 49.6333°
revolutions per day: 15.06381918
mean anomaly at epoch: 164.1793°
orbit number at epoch: 1

The dashed part of the orbit path shows where the satellite is in the earth's shadow,  

DLR